Home   Weather   Quispamsis   Past weeks

Flag for Canada Past Weather in Quispamsis, New Brunswick, Canada — Yesterday and Last 2 Weeks

Now
46 °F

Overcast.


Feels Like: 41 °F
Forecast: 47 / 59 °F
Wind: 12 mph from Northeast

Location: Saint John

Current Time: Sep 28, 2016 at 7:27:12 AM

Latest Report: Sep 28, 2016 at 6:00 AM


Visibility: 15 mi

Pressure: 30.22 "Hg

Humidity: 93%

Dew Point: 45 °F

Location of QuispamsisLocation

Past Weather in Quispamsis — Graph

°F

Quispamsis Temperature Yesterday

Maximum temperature yesterday: 55 °F (at 10:00 AM)
Minimum temperature yesterday: 45 °F (at 12:00 AM)
Average temperature yesterday: 51 °F

High & Low Weather Summary for the Past Weeks

 TemperatureHumidityPressure
High77 °F (Sep 21, 3:00 PM)100% (Sep 13, 6:00 AM)30.34 "Hg (Sep 13, 6:00 AM)
Low36 °F (Sep 16, 5:00 AM)32% (Sep 21, 3:00 PM)29.85 "Hg (Sep 14, 5:00 PM)
Average55 °F87%30.07 "Hg
* Reported Sep 13 6:00 AM — Sep 28 6:00 AM, Quispamsis, Weather by CustomWeather, © 2016

Note: Actual official high and low records may vary slightly from our data, if they occured in-between our weather recording intervals... More about our weather records

Advertising

Quispamsis Weather History for the Previous 24 Hours

Scroll right to see more
 ConditionsComfort  
Time TempWeatherWind HumidityBarometerVisibility
6:00 AM
Wed, Sep 28
46 °FOvercast.12 mph93%30.22 "Hg15 mi
5:00 AM46 °FOvercast.10 mph93%30.20 "Hg15 mi
4:00 AM46 °FOvercast.12 mph93%30.19 "Hg15 mi
3:00 AM46 °FOvercast.9 mph100%30.16 "Hg15 mi
2:00 AM48 °FPassing clouds.7 mph94%30.15 "Hg15 mi
1:00 AM48 °FMostly cloudy.7 mph100%30.10 "Hg15 mi
12:00 AM50 °FMostly cloudy.10 mph100%30.11 "Hg15 mi
11:00 PM
Tue, Sep 27
50 °FOvercast.10 mph100%30.09 "Hg15 mi
10:00 PM50 °FPassing clouds.10 mph94%30.05 "Hg15 mi
9:00 PM50 °FPassing clouds.9 mph100%30.03 "Hg15 mi
8:00 PM50 °FPassing clouds.9 mph100%30.02 "Hg15 mi
7:00 PM52 °FPartly sunny.10 mph94%29.98 "Hg15 mi
6:00 PM54 °FMostly cloudy.7 mph94%29.96 "Hg15 mi
5:00 PM54 °FMostly cloudy.9 mph94%29.94 "Hg15 mi
4:00 PM54 °FMostly cloudy.10 mph100%29.93 "Hg15 mi
3:00 PM54 °FMore clouds than sun.13 mph100%29.93 "Hg10 mi
2:00 PM54 °FLight rain. Fog.8 mph100%29.93 "Hg2 mi
1:00 PM54 °FLight rain. Fog.9 mph100%29.93 "Hg3 mi
12:00 PM55 °FLight rain. Fog.6 mph100%29.93 "Hg3 mi
11:03 AM55 °FRain. Fog.6 mph100%29.94 "Hg3 mi
10:46 AM55 °FLight rain. Fog.8 mph100%29.94 "Hg5 mi
10:00 AM55 °FLight rain. Low clouds.6 mph100%29.94 "Hg10 mi
9:00 AM50 °FMostly cloudy.No wind100%29.94 "Hg15 mi
8:00 AM46 °FCloudy.3 mph100%29.93 "Hg15 mi
7:00 AM50 °FPassing clouds.6 mph88%29.93 "Hg15 mi
Weather by CustomWeather, © 2016

See weather overviewHow to use our weather pages